[[{"header":{"parameterUnit":"m.s-1","parameterCategory":1,"la1":30.2991,"la2":30.254,"lo1":-89.0895,"lo2":-89.0444,"dy":0.0017,"dx":0.0017,"nx":28,"ny":28,"refTime":"2024-03-10T09:00:00:Z","depth":0,"parameterNumber":2,"parameterNumberName":"U-component_of_WINDS"},"data":[0,0,0,0,0,0,0,0,0,0,0,0,0,0,0,0,0,0,0,0,0,0,0,0,0,0,0,0,0,0,0,0,0,0,0,0,0,0,0,0,0,0,0,0,0,0,0,0,0,0,0,0,0,0,0,0,0,0,0.3092,0.3092,0,0.3101,0.3101,0.3101,0.3117,0.3117,0.3118,0.3118,0.3126,0.3126,0.3125,0,0,0,0,0,0,0,0,0,0,0,0,0,0.309,0.3089,0.3092,0.3092,0.3092,0.3101,0.3101,0.3101,0.3117,0.3117,0.3118,0.3118,0.3126,0.3126,0.3125,0,0,0,0,0,0,0,0,0,0,0,0,0,0.3094,0.3089,0.3092,0.3101,0.3102,0.3101,0.3101,0.3101,0.3117,0.3117,0.3118,0.3118,0.3126,0.3126,0.3125,0.3115,0,0,0.3125,0.3125,0,0,0,0,0,0,0,0,0.3093,0.3094,0.31,0.3101,0.3102,0.3108,0.3103,0.3106,0.3117,0.3111,0.3118,0.3118,0.3119,0.312,0.312,0.3115,0.3116,0.3125,0.3125,0.3125,0.3125,0,0,0,0,0,0,0,0.3093,0.3093,0.3095,0.31,0.3101,0.3105,0.3106,0.3103,0.3112,0.3112,0.3113,0.3114,0.312,0.312,0.3121,0.3116,0.3125,0.3125,0.3125,0.3125,0.3104,0.3104,0,0,0,0,0,0,0.3091,0.3093,0.3095,0.3096,0.3099,0.3105,0.3106,0.3106,0.3113,0.3114,0.3113,0.3114,0.312,0.3121,0.3121,0.311,0.3125,0.3125,0.3125,0.3104,0.3104,0.3103,0,0,0,0,0,0,0.3091,0.3091,0.3095,0.3095,0.3095,0.3104,0.3104,0.3106,0.3106,0.3114,0.3115,0.3112,0.3121,0.3121,0.3117,0.311,0.3125,0.3125,0.3105,0.3104,0.3104,0.3087,0,0,0,0,0,0,0.3091,0.3091,0.3087,0.3094,0.3095,0.309,0.3103,0.3105,0.3106,0.3107,0.3113,0.3114,0.3121,0.3117,0.3117,0.311,0.3124,0.3106,0.3105,0.3104,0.3088,0.3085,0.3083,0,0,0,0,0,0.3091,0.3082,0.3087,0.3087,0.3091,0.309,0.309,0.3098,0.3105,0.3101,0.3107,0.3114,0.3111,0.3116,0.3116,0.311,0.3106,0.3105,0.3104,0.3089,0.3086,0.3083,0,0,0,0,0,0,0.3073,0.3083,0.3089,0.3082,0.3085,0.3093,0.3088,0.3095,0.3096,0.3097,0.3107,0.3109,0.3103,0.3106,0.3111,0.31,0.311,0.3109,0.3098,0.3096,0.3094,0.3093,0.3124,0,0,0,0,0,0.3068,0.3067,0.3076,0.3069,0.307,0.3079,0.3079,0.3085,0.3088,0.309,0.3095,0.3098,0.3097,0.3097,0.3097,0.3089,0.309,0.3084,0.3082,0.308,0.3079,0.3075,0.3073,0.31,0.31,0.31,0,0,0.3058,0.3064,0.3062,0.3065,0.3068,0.3067,0.308,0.3077,0.3076,0.3089,0.3085,0.3089,0.3093,0.3087,0.3085,0.3089,0.3072,0.3079,0.3077,0.3077,0.3074,0.3071,0.3069,0.3099,0.3099,0.3099,0,0,0.3039,0.3043,0.3038,0.3041,0.3046,0.3052,0.3051,0.3058,0.3061,0.3058,0.3068,0.3067,0.3066,0.3069,0.307,0.3054,0.3061,0.3054,0.3042,0.3038,0.3036,0.3034,0.3028,0.3026,0.3052,0.3052,0.3052,0,0.3026,0.3024,0.3034,0.3032,0.3033,0.3046,0.304,0.3043,0.3048,0.3048,0.3054,0.3054,0.3057,0.3052,0.3048,0.3049,0.3048,0.3052,0.3035,0.3034,0.3032,0.3027,0.3024,0.3051,0.3051,0.3052,0.3052,0,0.3008,0.3007,0.3002,0.3007,0.3007,0.3003,0.3013,0.3013,0.3019,0.3025,0.3021,0.3027,0.3028,0.3028,0.3034,0.3024,0.3026,0.3034,0.3043,0.3028,0.3023,0.3021,0.305,0.305,0.3051,0.3051,0,0,0.2976,0.2988,0.2986,0.2989,0.2996,0.2995,0.2992,0.2994,0.2994,0.2997,0.2994,0.2994,0.3001,0.3003,0.301,0.3007,0.2993,0.3014,0.3015,0.301,0.2983,0.2977,0.2974,0.2999,0.2998,0.2998,0.2982,0,0.2958,0.2954,0.2963,0.2956,0.2956,0.2968,0.2966,0.297,0.2976,0.2976,0.2982,0.2981,0.2991,0.2992,0.299,0.2995,0.2988,0.2997,0.2996,0.2996,0.2994,0.2972,0.2965,0.295,0.2981,0.298,0.298,0,0.2936,0.2939,0.2932,0.2941,0.2941,0.2938,0.2942,0.2942,0.2947,0.2951,0.2954,0.2962,0.296,0.297,0.2967,0.2973,0.2974,0.2977,0.2976,0.2976,0.2987,0.297,0.2945,0.2943,0.2977,0.2977,0.2977,0,0.2914,0.2916,0.2912,0.2914,0.2924,0.2922,0.2926,0.2932,0.2933,0.2936,0.2937,0.294,0.2941,0.2943,0.2952,0.2958,0.2948,0.2959,0.2951,0.2951,0.2948,0.2948,0.2922,0.2949,0.2949,0.2949,0.2949,0,0.2892,0.2888,0.2902,0.29,0.2895,0.2907,0.2902,0.2907,0.2913,0.2912,0.2923,0.2922,0.2934,0.2934,0.2942,0.2938,0.2939,0.2942,0.2944,0.2941,0.294,0.2941,0.2942,0.2949,0.2949,0.2949,0.2949,0,0.2866,0.2875,0.2872,0.2882,0.2885,0.2881,0.289,0.2888,0.2895,0.2894,0.2894,0.2905,0.2906,0.2915,0.2918,0.2923,0.2917,0.2921,0.2915,0.2916,0.2908,0.2909,0.2882,0.2879,0.2908,0.2908,0.2907,0,0.2851,0.2848,0.2858,0.2858,0.2862,0.2862,0.2864,0.2875,0.2876,0.2883,0.2881,0.2883,0.2885,0.2886,0.2894,0.2897,0.2901,0.2891,0.2901,0.2898,0.29,0.29,0.29,0.2889,0.2888,0.2888,0.2888,0,0.2824,0.2829,0.2831,0.2834,0.2836,0.2839,0.2843,0.2843,0.2856,0.2857,0.2858,0.286,0.2864,0.2866,0.287,0.2875,0.2883,0.2885,0.2883,0.2879,0.2876,0.2878,0.2909,0.2885,0.2885,0.2886,0.2886,0.2886,0.2802,0.28,0.2807,0.2809,0.2814,0.2817,0.2817,0.2824,0.2826,0.283,0.2837,0.2837,0.2844,0.2851,0.2854,0.2855,0.286,0.2858,0.2857,0.2856,0.2855,0.2877,0.2856,0.2856,0.2856,0.2856,0.2856,0,0.2775,0.2781,0.2783,0.2788,0.279,0.2799,0.2804,0.2805,0.2805,0.2811,0.2813,0.2816,0.2818,0.2827,0.283,0.2829,0.2834,0.283,0.283,0.2831,0.285,0.2851,0.2826,0.2826,0.2826,0.2827,0.2827,0.2827,0.2761,0.2759,0.2765,0.2765,0.277,0.2771,0.2774,0.2778,0.2782,0.2784,0.2786,0.2793,0.28,0.2804,0.2807,0.2809,0.281,0.2805,0.2809,0.2826,0.2829,0.2832,0.2833,0.2805,0.2805,0.2789,0.2789,0.2789]},{"header":{"parameterUnit":"m.s-1","parameterCategory":1,"la1":30.2991,"la2":30.254,"lo1":-89.0895,"lo2":-89.0444,"dy":0.0017,"dx":0.0017,"nx":28,"ny":28,"refTime":"2024-03-10T09:00:00:Z","depth":0,"parameterNumber":3,"parameterNumberName":"V-component_of_WINDS"},"data":[0,0,0,0,0,0,0,0,0,0,0,0,0,0,0,0,0,0,0,0,0,0,0,0,0,0,0,0,0,0,0,0,0,0,0,0,0,0,0,0,0,0,0,0,0,0,0,0,0,0,0,0,0,0,0,0,0,0,-4.6584,-4.6585,0,-4.6681,-4.6682,-4.6683,-4.6628,-4.6625,-4.6623,-4.662,-4.6717,-4.6721,-4.6727,0,0,0,0,0,0,0,0,0,0,0,0,0,-4.6351,-4.6355,-4.6584,-4.6585,-4.6586,-4.668,-4.6682,-4.6683,-4.6628,-4.6625,-4.6622,-4.6619,-4.6715,-4.6721,-4.6727,0,0,0,0,0,0,0,0,0,0,0,0,0,-4.645,-4.6357,-4.6584,-4.6571,-4.657,-4.668,-4.6682,-4.6683,-4.6629,-4.6625,-4.6621,-4.6617,-4.6713,-4.672,-4.6728,-4.6855,0,0,-4.6751,-4.6754,0,0,0,0,0,0,0,0,-4.6444,-4.6459,-4.6571,-4.6572,-4.6572,-4.6638,-4.6635,-4.6741,-4.663,-4.6607,-4.662,-4.6615,-4.6694,-4.6703,-4.6729,-4.686,-4.6864,-4.6752,-4.6756,-4.676,-4.6762,0,0,0,0,0,0,0,-4.6438,-4.6454,-4.6622,-4.6573,-4.6573,-4.6559,-4.6569,-4.6655,-4.6671,-4.6609,-4.6605,-4.6617,-4.6693,-4.6722,-4.6731,-4.6865,-4.6751,-4.6758,-4.6763,-4.6766,-4.7105,-4.7109,0,0,0,0,0,0,-4.6432,-4.6449,-4.6619,-4.6625,-4.6497,-4.6567,-4.6578,-4.6621,-4.667,-4.6674,-4.662,-4.6614,-4.6711,-4.6722,-4.6734,-4.6887,-4.676,-4.6767,-4.6771,-4.7101,-4.7106,-4.7111,0,0,0,0,0,0,-4.6427,-4.6448,-4.6615,-4.6536,-4.6556,-4.6575,-4.6624,-4.6625,-4.6654,-4.6679,-4.6682,-4.6647,-4.6708,-4.6724,-4.6826,-4.689,-4.677,-4.6777,-4.7096,-4.7102,-4.7109,-4.7194,0,0,0,0,0,0,-4.6421,-4.6446,-4.6495,-4.6538,-4.6561,-4.6706,-4.6628,-4.663,-4.6668,-4.666,-4.6705,-4.6709,-4.6706,-4.6815,-4.6833,-4.6898,-4.6783,-4.709,-4.7099,-4.7106,-4.7185,-4.7202,-4.7217,0,0,0,0,0,-4.6413,-4.6515,-4.6498,-4.6519,-4.6623,-4.671,-4.6723,-4.6719,-4.6673,-4.6722,-4.6739,-4.6708,-4.688,-4.6826,-4.6846,-4.6914,-4.7086,-4.7096,-4.7106,-4.7178,-4.7199,-4.7217,0,0,0,0,0,0,-4.6479,-4.652,-4.6502,-4.6621,-4.6663,-4.67,-4.6762,-4.6741,-4.6795,-4.6786,-4.6778,-4.6788,-4.6895,-4.6914,-4.6853,-4.704,-4.6976,-4.699,-4.7023,-4.7044,-4.7059,-4.7052,-4.6789,0,0,0,0,0,-4.6507,-4.6575,-4.6607,-4.671,-4.6731,-4.6744,-4.6781,-4.6774,-4.6816,-4.6833,-4.6857,-4.6898,-4.6962,-4.7004,-4.7063,-4.7188,-4.7197,-4.7244,-4.726,-4.7273,-4.7286,-4.7353,-4.7375,-4.7144,-4.7144,-4.7144,0,0,-4.6567,-4.6598,-4.6641,-4.6724,-4.6755,-4.6825,-4.6758,-4.6835,-4.6887,-4.6845,-4.6943,-4.6962,-4.7007,-4.7121,-4.7173,-4.7141,-4.7352,-4.7286,-4.7296,-4.7302,-4.7366,-4.7388,-4.7407,-4.7151,-4.7149,-4.7148,0,0,-4.6711,-4.6742,-4.683,-4.6863,-4.6912,-4.6919,-4.6941,-4.6982,-4.6993,-4.7092,-4.7062,-4.7123,-4.7232,-4.7266,-4.7297,-4.7455,-4.7429,-4.7475,-4.7558,-4.7624,-4.7642,-4.7658,-4.7715,-4.7735,-4.7487,-4.7488,-4.7488,0,-4.6779,-4.6884,-4.6878,-4.6958,-4.6995,-4.6961,-4.705,-4.7082,-4.7147,-4.7174,-4.7137,-4.7274,-4.7302,-4.7424,-4.7463,-4.7489,-4.7513,-4.747,-4.764,-4.7656,-4.7671,-4.7725,-4.7746,-4.7493,-4.7492,-4.7492,-4.7491,0,-4.6965,-4.7039,-4.7104,-4.7169,-4.7214,-4.7298,-4.7304,-4.735,-4.7339,-4.735,-4.7451,-4.7484,-4.755,-4.7578,-4.7568,-4.7698,-4.7677,-4.7641,-4.7576,-4.7699,-4.7749,-4.777,-4.75,-4.7499,-4.7497,-4.7496,0,0,-4.7154,-4.7215,-4.7239,-4.7269,-4.732,-4.7376,-4.7458,-4.7524,-4.7563,-4.7609,-4.7678,-4.7771,-4.7738,-4.7774,-4.7768,-4.7825,-4.7949,-4.7782,-4.7783,-4.7812,-4.8095,-4.8122,-4.8146,-4.7931,-4.7935,-4.7938,-4.8091,0,-4.7302,-4.7447,-4.7444,-4.7579,-4.7647,-4.7615,-4.7687,-4.7726,-4.7739,-4.7797,-4.781,-4.7877,-4.7828,-4.785,-4.7906,-4.7922,-4.8005,-4.7911,-4.7995,-4.7998,-4.7985,-4.8172,-4.8201,-4.8344,-4.811,-4.8114,-4.8116,0,-4.7494,-4.7548,-4.7689,-4.7731,-4.7759,-4.7824,-4.7884,-4.7941,-4.7984,-4.7989,-4.8029,-4.8014,-4.8097,-4.803,-4.8144,-4.808,-4.8114,-4.8127,-4.8132,-4.814,-4.8065,-4.8185,-4.8389,-4.841,-4.8147,-4.8145,-4.8142,0,-4.7618,-4.7726,-4.7824,-4.785,-4.7901,-4.7947,-4.7971,-4.801,-4.805,-4.8101,-4.8127,-4.8188,-4.8221,-4.8268,-4.8269,-4.822,-4.8385,-4.8317,-4.8391,-4.8391,-4.8427,-4.8425,-4.8639,-4.8449,-4.8448,-4.8448,-4.8448,0,-4.7784,-4.7872,-4.7881,-4.7942,-4.8039,-4.8035,-4.8131,-4.8149,-4.8185,-4.8248,-4.8224,-4.8284,-4.8282,-4.8342,-4.8343,-4.8438,-4.8453,-4.8459,-4.8458,-4.8462,-4.8461,-4.8484,-4.8474,-4.8454,-4.8452,-4.8451,-4.845,0,-4.7939,-4.7948,-4.8054,-4.8094,-4.8106,-4.8176,-4.821,-4.8267,-4.8278,-4.8358,-4.8377,-4.8394,-4.8464,-4.8469,-4.855,-4.8551,-4.8665,-4.8654,-4.8651,-4.8649,-4.8723,-4.8716,-4.896,-4.8991,-4.878,-4.8782,-4.8784,0,-4.8044,-4.8111,-4.8158,-4.82,-4.8226,-4.8292,-4.8333,-4.8331,-4.8374,-4.8429,-4.848,-4.8548,-4.8602,-4.8716,-4.8734,-4.8796,-4.8786,-4.8867,-4.8795,-4.8796,-4.8787,-4.8783,-4.879,-4.8881,-4.8883,-4.8885,-4.8887,0,-4.823,-4.8231,-4.8291,-4.8354,-4.8403,-4.8452,-4.8497,-4.8532,-4.8535,-4.8585,-4.8657,-4.8699,-4.8782,-4.885,-4.8911,-4.8933,-4.8911,-4.8909,-4.893,-4.8934,-4.893,-4.8933,-4.869,-4.8904,-4.8902,-4.8901,-4.89,-4.8899,-4.8363,-4.8422,-4.8464,-4.8532,-4.8566,-4.8609,-4.8666,-4.8684,-4.8744,-4.8812,-4.8807,-4.8887,-4.8928,-4.9007,-4.9035,-4.9097,-4.9069,-4.9099,-4.9106,-4.9113,-4.9121,-4.892,-4.9108,-4.9107,-4.9107,-4.9106,-4.9106,0,-4.8548,-4.8574,-4.8637,-4.8701,-4.8755,-4.873,-4.8779,-4.8825,-4.8895,-4.8936,-4.8991,-4.9073,-4.9139,-4.9163,-4.9227,-4.9272,-4.9263,-4.9289,-4.9285,-4.9291,-4.9142,-4.9118,-4.9295,-4.9295,-4.9295,-4.9295,-4.9295,-4.9295,-4.865,-4.8748,-4.8755,-4.8869,-4.8894,-4.8973,-4.9003,-4.9043,-4.9075,-4.9169,-4.9224,-4.924,-4.9274,-4.934,-4.9399,-4.9404,-4.9429,-4.9459,-4.946,-4.9321,-4.9302,-4.9283,-4.9261,-4.9465,-4.9465,-4.9604,-4.9606,-4.9606]}]]